Blythe, CA

11:18 PM PST on February 07, 2016 (GMT -0800)
Blythe

Weather History for KBLH - August, 2014

Change the Weather History Date:

Saturday, August 30, 2014

  Actual Average (KNYL) Record (KNYL)
Temperature  
Mean Temperature 94 °F 93 °F  
Max Temperature 111 °F 106 °F 114 °F (1950)
Min Temperature 78 °F 81 °F 58 °F (1907)
Degree Days  
Heating Degree Days 0 0  
Month to date heating degree days 0  
Since 1 June heating degree days 0  
Since 1 July heating degree days 0  
Cooling Degree Days 30 28  
Month to date cooling degree days 880  
Year to date cooling degree days 3426  
Since 1 June cooling degree days 2514  
Growing Degree Days 44 (Base 50)    
Moisture  
Dew Point 42 °F    
Average Humidity 17    
Maximum Humidity 29    
Minimum Humidity 8    
Precipitation  
Precipitation 0.00 in 0.02 in 1.44 in (1909)
Month to date precipitation 0.46  
Year to date precipitation 2.08  
Sea Level Pressure  
Sea Level Pressure 29.67 in    
Wind  
Wind Speed 6 mph (South)    
Max Wind Speed 17 mph    
Max Gust Speed 25 mph    
Visibility 10 miles    
Events      
T = Trace of Precipitation, MM = Missing Value Source: NWS Daily Summary

Daily Weather History Graph

Daily Weather History Graph

Search for Another Location

Airport or City:

Trip Planner

Search our weather history database for the weather conditions in past years. The results will help you decide how hot, cold, wet, or windy it might be!

Date:

Astronomy

Aug. 30, 2014 Rise Set
Actual Time 6:11 AM PDT 7:06 PM PDT
Civil Twilight 5:46 AM PDT 7:32 PM PDT
Nautical Twilight 5:15 AM PDT 8:02 PM PDT
Astronomical Twilight 4:44 AM PDT 8:33 PM PDT
Moon 10:47 AM PDT (8/30) 10:00 PM PDT (8/30)
Length of Visible Light 13h 46m
Length of Day
12h 55m
Waxing Crescent, 24% of the Moon is Illuminated
Aug 30
Waxing Crescent
Sep 2
First Quarter
Sep 8
Full
Sep 15
Last Quarter
Sep 23
New

Hourly Weather History & Observations

Time (PDT) Temp. Dew Point Humidity Pressure Visibility Wind Dir Wind Speed Gust Speed Precip Events Conditions
1:52 AM 82.9 °F 44.1 °F 25% 29.67 in 10.0 mi Calm Calm - N/A   Clear
2:52 AM 81.0 °F 43.0 °F 26% 29.67 in 10.0 mi Calm Calm - N/A   Clear
3:52 AM 82.0 °F 42.1 °F 24% 29.67 in 10.0 mi NNW 5.8 mph - N/A   Clear
4:52 AM 79.0 °F 42.1 °F 27% 29.68 in 10.0 mi North 10.4 mph - N/A   Clear
5:52 AM 79.0 °F 42.1 °F 27% 29.69 in 10.0 mi NNW 4.6 mph - N/A   Clear
6:52 AM 78.1 °F 43.0 °F 29% 29.71 in 10.0 mi NNW 3.5 mph - N/A   Clear
7:52 AM 84.0 °F 46.0 °F 26% 29.72 in 10.0 mi East 4.6 mph - N/A   Clear
9:52 AM 95.0 °F 42.1 °F 16% 29.73 in 10.0 mi Calm Calm - N/A   Clear
10:52 AM 99.0 °F 39.0 °F 13% 29.73 in 10.0 mi Calm Calm - N/A   Clear
11:52 AM 104.0 °F 41.0 °F 12% 29.72 in 10.0 mi SSW 5.8 mph - N/A   Clear
12:52 PM 107.1 °F 37.0 °F 9% 29.69 in 10.0 mi SE 9.2 mph - N/A   Clear
1:52 PM 109.9 °F 39.0 °F 9% 29.66 in 10.0 mi South 9.2 mph - N/A   Partly Cloudy
2:52 PM 111.0 °F 37.0 °F 8% 29.64 in 10.0 mi South 17.3 mph - N/A   Clear
3:52 PM 111.0 °F 39.0 °F 9% 29.62 in 10.0 mi SSE 15.0 mph - N/A   Partly Cloudy
4:52 PM 109.9 °F 39.9 °F 9% 29.61 in 10.0 mi South 16.1 mph - N/A   Partly Cloudy
5:52 PM 109.0 °F 39.0 °F 9% 29.60 in 10.0 mi South 13.8 mph - N/A   Partly Cloudy
6:52 PM 104.0 °F 46.9 °F 15% 29.60 in 10.0 mi South 8.1 mph - N/A   Clear
8:52 PM 100.9 °F 43.0 °F 14% 29.62 in 10.0 mi SSW 17.3 mph - N/A   Clear
9:52 PM 99.0 °F 48.9 °F 18% 29.64 in 10.0 mi SSW 16.1 mph 25.3 mph N/A   Clear
10:52 PM 97.0 °F 46.0 °F 18% 29.65 in 10.0 mi SSW 12.7 mph - N/A   Clear
11:52 PM 95.0 °F 44.1 °F 17% 29.66 in 10.0 mi South 3.5 mph - N/A   Clear